sat.trackr.live / text

‹ back to catalog

STARLINK-5537

NORAD 55384 · 2023-013BF

PAYLOAD ACTIVE UNKNOWN

§ Identity

Operator
Country
US
Launch date
2023-01-26
Launch site
AFETR
Launch vehicle
Mass (kg)
RCS (m²)

Purposes: comms

External: N2YO · Heavens-Above · Gunter

§ Orbital elements

Epoch: 2026-09-20T10:07:05.269728Z

Period
94.27 min
Inclination
43.0053°
Eccentricity
0.0001517
Mean motion
15.27576438 rev/d
Perigee alt
482.0 km
Apogee alt
484.1 km
Semi-major
6,861.2 km
B*
2.7515e-6
RAAN
298.4799°
Arg perigee
288.8708°
Mean anomaly
71.1979°
Rev number
20,128

§ Raw data

STARLINK-55371 55384U 23013BF  26263.42158877 -.00000187  00000+0  27515-5 0  99962 55384  43.0053 298.4799 0001517 288.8708  71.1979 15.27576438201280

JSON: /api/v1/satellites/55384 · /tle

For live sub-satellite position, see the globe view (requires WebGL).

§ Visibility from observer

Set your observer location to see the next 7 days of passes ≥ 10°. The values pass through the URL so the page stays shareable.

No JS? Fill the form by hand. The geolocation button needs JavaScript.